MOLNIYA 1-44

Last updated on Oct. 24, 2017, 12:19 a.m. UTC

1 11474U 79070A   17296.42201831  .15834611  92894-5  21815-3 0  9992
2 11474  61.9462 282.6348 0069946  92.1613   7.0055 16.39147440583828

Satellite is not in orbit.